Location: Bratsk-Energetik
(56.3300°N, 101.7600°E)
Time: 13:21:23
(UTC+08:00)

ISS - Pass Details

Date: 29 May 2017
Orbit: 401 x 408 km, 51.6° (Epoch: 27 June)

Event Time Altitude Azimuth Distance (km) Brightness Sun altitude
Rises 00:34:14 0° 265° (W) 2,339 0.1 -11.7°
Reaches altitude 10° 00:36:26 10° 255° (WSW) 1,476 -1.1 -11.8°
Maximum altitude 00:39:26 32° 190° (S) 720 -3.1 -11.8°
Enters shadow 00:42:10 12° 127° (SE) 1,374 -1.5 -11.9°
